HULIANWANG DIGUI-28

导读

HULIANWANG DIGUI-28是中国于2025年4月28日发射的卫星,作为低轨互联网星座的组成部分,承担补充组网任务,完善星座覆盖范围与通信容量。依托中国成熟航天发射技术保障入轨精度,它将为全球用户提供高速卫星互联网接入服务,支持偏远地区通信、物联网互联等应用,推动中国低轨卫星互联网基础设施建设。

Basic Information
目录编号:
63695
目录名称:
HULIANWANG DIGUI-28
国际标识:
2025-086J
轨道中心:
EARTH
卫星名称:
HULIANWANG DIGUI-28
卫星全名:
HULIANWANG DIGUI-28
卫星状态:
在轨 (已飞行505 天)
发射日期:
2025-04-28 UTC
国别 :
中国 (CN)
星等 :
--
This satellite is enrolled in the Space Conjunction Data Service (SCDS) and the current flight risk assessment level is: No High Risk
Orbit Information
数据来源 国际轨道数据 AOE轨道数据
星历时间 2026-09-15T22:23:12+0800
7小时前
查看轨道信息
2026-09-14T08:00:00+0800
1天前
查看轨道信息
半长轴 7546.043km 7546.024km
偏心率 0.0001885 0.0001468
轨道倾角 86.494° 86.494°
近地点辐角 80.913° 106.748°
升交点赤经 282.445° 282.985°
平近点角 279.221° 191.738°
近地点 1166.483km 1166.779km
远地点 1169.329km 1168.995km
周期 108.727分钟 108.727分钟
每日圈数 13.244143 13.244193
Detailed Information
使用方式:
暂无
2D Orbit Map
3D Orbit Map
Orbit Altitude Analysis Chart
Orbit Inclination Analysis Chart
Orbit Comprehensive Analysis Chart
View Comprehensive Chart
Miss Distance Evolution Trend with All Objects Subscribe to Flight Safety Assessment
Collision Probability Evolution Trend with All Objects Subscribe to Flight Safety Assessment